IK4PKL Weather Reports


time (UTC)temp
C
wind
direction
speed
KPH
gust
KPH
rain 1hr
cm
rain 24hr
cm
rain mn
cm
humidity
%
barometer
mb
20260507203003 17 168 3.2 4.8 0.00 0.00 0.00 77 1015.9
20260507202503 17 109 1.6 6.4 0.00 0.00 0.00 75 1015.8
20260507202005 17 77 1.6 6.4 0.00 0.00 0.00 75 1015.8
20260507201503 17 93 1.6 6.4 0.00 0.00 0.00 75 1015.9
20260507201003 17 110 3.2 8.0 0.00 0.00 0.00 75 1015.6
20260507200503 17 123 4.8 9.7 0.00 0.00 0.00 74 1015.8
20260507200003 17 122 6.4 9.7 0.00 0.00 0.00 74 1015.9
20260507195503 17 118 6.4 9.7 0.00 0.00 0.00 73 1015.7
20260507195004 17 116 6.4 9.7 0.00 0.00 0.00 73 1015.8
20260507194503 17 110 4.8 9.7 0.00 0.00 0.00 73 1015.8
20260507194005 17 107 3.2 6.4 0.00 0.00 0.00 72 1015.9
20260507193503 17 117 3.2 6.4 0.00 0.00 0.00 72 1015.6
20260507193003 17 115 4.8 8.0 0.00 0.00 0.00 72 1015.6
20260507192503 17 117 4.8 11.3 0.00 0.00 0.00 72 1015.4
20260507192003 17 123 4.8 11.3 0.00 0.00 0.00 72 1015.6
20260507191503 18 110 4.8 11.3 0.00 0.00 0.00 71 1015.6
20260507191003 18 110 6.4 11.3 0.00 0.00 0.00 71 1015.3
20260507190504 17 126 6.4 11.3 0.00 0.00 0.00 71 1015.4
20260507190004 17 138 6.4 9.7 0.00 0.00 0.00 72 1015.5
20260507185504 18 150 6.4 9.7 0.00 0.00 0.00 71 1015.5
20260507185003 18 149 4.8 9.7 0.00 0.00 0.00 71 1015.3
20260507184712 18 148 4.8 9.7 0.00 0.00 0.00 71 1015.3
20260507184003 18 144 3.2 6.4 0.00 0.00 0.00 72 1015.3
20260507183503 18 159 3.2 6.4 0.00 0.00 0.00 72 1015.3
20260507183213 18 162 3.2 6.4 0.00 0.00 0.00 72 1015.2
20260507182504 18 157 4.8 8.0 0.00 0.00 0.00 72 1015.1
20260507182003 18 137 6.4 9.7 0.00 0.00 0.00 72 1015.1
20260507181503 18 113 4.8 12.9 0.00 0.00 0.00 71 1015.2
20260507181005 18 111 6.4 14.5 0.00 0.00 0.00 71 1015.1
20260507180714 18 115 8.0 19.3 0.00 0.00 0.00 71 1015.0
20260507180003 18 139 12.9 24.1 0.00 0.00 0.00 71 1014.9
20260507175714 18 139 16.1 25.7 0.00 0.00 0.00 71 1014.6
20260507175004 18 133 17.7 25.7 0.00 0.00 0.00 71 1014.8
20260507174504 18 132 16.1 25.7 0.00 0.00 0.00 72 1014.7
20260507174003 18 127 12.9 25.7 0.00 0.00 0.00 74 1014.7
20260507173503 18 122 12.9 29.0 0.00 0.00 0.00 74 1014.6
20260507173005 18 118 14.5 29.0 0.00 0.00 0.00 75 1014.5
20260507172714 18 117 16.1 29.0 0.00 0.00 0.00 75 1014.5
20260507172005 18 116 16.1 33.8 0.00 0.00 0.00 77 1014.6
20260507171714 18 117 16.1 33.8 0.00 0.00 0.00 78 1014.6
20260507171003 18 113 17.7 33.8 0.00 0.00 0.00 79 1014.6
20260507170505 18 115 16.1 32.2 0.00 0.00 0.00 80 1014.4
20260507170003 18 114 14.5 33.8 0.00 0.00 0.00 80 1014.5
20260507165504 18 116 17.7 33.8 0.00 0.00 0.00 79 1014.7
20260507165003 18 125 14.5 27.4 0.00 0.00 0.00 79 1014.8
20260507164503 18 123 9.7 25.7 0.00 0.00 0.00 76 1014.6
20260507164003 18 107 11.3 27.4 0.00 0.00 0.00 74 1014.6
20260507163503 18 106 14.5 27.4 0.00 0.00 0.00 73 1014.4
20260507163003 18 106 11.3 25.7 0.00 0.00 0.00 72 1014.5
20260507162716 19 91 9.7 25.7 0.00 0.00 0.00 69 1014.6
20260507162003 19 78 8.0 19.3 0.00 0.00 0.00 64 1014.7
20260507161713 18 82 8.0 22.5 0.00 0.00 0.00 64 1014.7
20260507161212 18 80 9.7 22.5 0.00 0.00 0.00 64 1014.8
20260507160504 18 83 9.7 24.1 0.00 0.00 0.00 59 1014.6
20260507160003 18 95 9.7 24.1 0.00 0.00 0.00 57 1014.5
20260507155505 18 103 8.0 20.9 0.00 0.00 0.00 58 1014.6
20260507155003 18 94 9.7 20.9 0.00 0.00 0.00 60 1015.0
20260507154503 18 84 11.3 20.9 0.00 0.00 0.00 58 1014.7
20260507154212 18 84 9.7 17.7 0.00 0.00 0.00 61 1014.8
20260507153504 18 67 9.7 22.5 0.00 0.00 0.00 59 1014.9
20260507153003 18 71 11.3 22.5 0.00 0.00 0.00 56 1014.8
20260507152503 18 70 11.3 22.5 0.00 0.00 0.00 58 1014.7
20260507152003 18 69 11.3 20.9 0.00 0.00 0.00 54 1014.9
20260507151503 19 76 9.7 25.7 0.00 0.00 0.00 52 1014.7
20260507151003 18 80 12.9 25.7 0.00 0.00 0.00 52 1014.8
20260507150503 18 81 12.9 25.7 0.00 0.00 0.00 52 1014.8
20260507150005 18 75 12.9 24.1 0.00 0.00 0.00 49 1014.8
20260507145503 18 68 11.3 24.1 0.00 0.00 0.00 52 1014.8
20260507145003 18 70 16.1 25.7 0.00 0.00 0.00 50 1014.8
20260507144505 18 71 16.1 25.7 0.00 0.00 0.00 51 1014.9
20260507144004 18 70 11.3 22.5 0.00 0.00 0.00 55 1014.9
20260507143503 18 64 8.0 19.3 0.00 0.00 0.00 58 1014.7
20260507143214 19 65 8.0 19.3 0.00 0.00 0.00 59 1014.9
20260507142505 18 70 11.3 22.5 0.00 0.00 0.00 59 1015.0
20260507142003 18 66 11.3 22.5 0.00 0.00 0.00 56 1015.0
20260507141713 18 70 12.9 20.9 0.00 0.00 0.00 57 1014.9
20260507141003 18 67 11.3 25.7 0.00 0.00 0.00 54 1015.0
20260507140503 18 71 12.9 25.7 0.00 0.00 0.00 57 1015.0
20260507140003 18 76 12.9 22.5 0.00 0.00 0.00 52 1014.9
20260507135503 18 65 12.9 22.5 0.00 0.00 0.00 56 1014.9
20260507135003 18 60 12.9 24.1 0.00 0.00 0.00 58 1015.1
20260507134503 18 68 14.5 24.1 0.00 0.00 0.00 54 1015.0
20260507134214 18 70 12.9 20.9 0.00 0.00 0.00 56 1015.0
20260507133503 18 65 12.9 24.1 0.00 0.00 0.00 57 1015.0
20260507133003 18 67 12.9 22.5 0.00 0.00 0.00 54 1015.1
20260507132503 18 63 12.9 25.7 0.00 0.00 0.00 54 1014.9
20260507132003 18 51 11.3 25.7 0.00 0.00 0.00 55 1014.9
20260507131503 18 48 9.7 25.7 0.00 0.00 0.00 56 1015.0
20260507131005 18 54 11.3 25.7 0.00 0.00 0.00 59 1015.0
20260507130505 18 51 12.9 27.4 0.00 0.00 0.00 57 1015.0
20260507130004 18 59 12.9 27.4 0.00 0.00 0.00 58 1015.1
20260507125503 18 59 11.3 25.7 0.00 0.00 0.00 54 1014.9
20260507125005 18 55 12.9 27.4 0.00 0.00 0.00 57 1014.9
20260507124503 18 60 11.3 27.4 0.00 0.00 0.00 58 1015.0
20260507124003 18 57 11.3 27.4 0.00 0.00 0.00 58 1015.0
20260507123503 18 57 12.9 27.4 0.00 0.00 0.00 58 1015.0
20260507123004 18 56 11.3 24.1 0.00 0.00 0.00 58 1015.1
20260507122503 18 60 9.7 20.9 0.00 0.00 0.00 54 1015.1
20260507122005 19 57 11.3 20.9 0.00 0.00 0.00 50 1014.9
20260507121714 19 52 11.3 20.9 0.00 0.00 0.00 53 1014.9
20260507121003 19 49 11.3 20.9 0.00 0.00 0.00 52 1015.1
20260507120503 18 62 14.5 20.9 0.00 0.00 0.00 51 1015.1
20260507120004 18 63 14.5 22.5 0.00 0.00 0.00 51 1015.0
20260507115503 18 47 14.5 25.7 0.00 0.00 0.00 52 1015.1
20260507115213 18 41 14.5 25.7 0.00 0.00 0.00 52 1015.0
20260507114503 18 65 11.3 20.9 0.00 0.00 0.00 52 1015.1
20260507114003 18 61 9.7 20.9 0.00 0.00 0.00 53 1015.1
20260507113505 19 54 9.7 20.9 0.00 0.00 0.00 53 1015.2
20260507113003 18 45 9.7 24.1 0.00 0.00 0.00 52 1015.0
20260507112503 18 46 9.7 24.1 0.00 0.00 0.00 51 1015.3
20260507112003 18 49 11.3 22.5 0.00 0.00 0.00 54 1015.4
20260507111713 18 40 12.9 24.1 0.00 0.00 0.00 54 1015.3
20260507111003 18 35 11.3 24.1 0.00 0.00 0.00 51 1015.2
20260507110505 18 50 14.5 24.1 0.00 0.00 0.00 52 1015.4
20260507110214 18 57 14.5 25.7 0.00 0.00 0.00 54 1015.5
20260507105503 18 58 16.1 29.0 0.00 0.00 0.00 58 1015.4
20260507105003 18 53 12.9 24.1 0.00 0.00 0.00 55 1015.5
20260507104504 19 45 11.3 25.7 0.00 0.00 0.00 53 1015.3
20260507104003 19 31 9.7 25.7 0.00 0.00 0.00 53 1015.1
20260507103503 19 32 9.7 22.5 0.00 0.00 0.00 53 1015.4
20260507103003 19 33 11.3 27.4 0.00 0.00 0.00 53 1015.3
20260507102713 19 30 14.5 27.4 0.00 0.00 0.00 53 1015.2
20260507102003 20 24 11.3 27.4 0.00 0.00 0.00 52 1015.3
20260507101503 20 17 8.0 20.9 0.00 0.00 0.00 51 1015.3
20260507101003 20 10 9.7 20.9 0.00 0.00 0.00 50 1015.5
20260507100503 19 15 11.3 22.5 0.00 0.00 0.00 52 1015.3
20260507100004 19 13 12.9 24.1 0.00 0.00 0.00 53 1015.5
20260507095713 19 1 12.9 25.7 0.00 0.00 0.00 51 1015.4
20260507095214 19 344 11.3 25.7 0.00 0.00 0.00 53 1015.4
20260507094715 19 344 9.7 24.1 0.00 0.00 0.00 52 1015.3
20260507094214 19 348 11.3 22.5 0.00 0.00 0.00 54 1015.4
20260507093505 19 357 9.7 22.5 0.00 0.00 0.00 54 1015.4
20260507093003 19 3 8.0 17.7 0.00 0.00 0.00 54 1015.4
20260507092715 19 4 9.7 19.3 0.00 0.00 0.00 54 1015.2
20260507092003 18 356 11.3 19.3 0.00 0.00 0.00 56 1015.3
20260507091505 19 10 11.3 19.3 0.00 0.00 0.00 55 1015.1
20260507091214 18 7 11.3 20.9 0.00 0.00 0.00 56 1015.3
20260507090503 18 14 11.3 24.1 0.00 0.00 0.00 58 1015.2
20260507090004 18 24 9.7 24.1 0.00 0.00 0.00 57 1015.3
20260507085505 18 11 9.7 24.1 0.00 0.00 0.00 57 1015.3
20260507085214 18 9 12.9 25.7 0.00 0.00 0.00 58 1015.3
20260507084713 18 11 14.5 25.7 0.00 0.00 0.00 60 1015.3
20260507084005 18 22 11.3 25.7 0.00 0.00 0.00 61 1015.4
20260507083713 18 20 11.3 25.7 0.00 0.00 0.00 61 1015.2
20260507083004 17 16 11.3 29.0 0.00 0.00 0.00 67 1015.3
20260507082503 18 18 9.7 22.5 0.00 0.00 0.00 63 1015.2
20260507082004 18 14 9.7 22.5 0.00 0.00 0.00 68 1015.0
20260507081714 18 7 9.7 22.5 0.00 0.00 0.00 66 1014.9
20260507081003 20 321 8.0 16.1 0.00 0.00 0.00 52 1014.9
20260507080503 19 296 9.7 20.9 0.00 0.00 0.00 52 1014.6
20260507080004 19 296 11.3 20.9 0.00 0.00 0.00 52 1014.8
20260507075714 19 297 11.3 20.9 0.00 0.00 0.00 54 1014.6
20260507075003 19 295 11.3 20.9 0.00 0.00 0.00 55 1014.6
20260507074504 18 303 11.3 17.7 0.00 0.00 0.00 56 1014.7
20260507074003 18 302 9.7 17.7 0.00 0.00 0.00 57 1014.5
20260507073503 18 317 8.0 17.7 0.00 0.00 0.00 56 1014.6
20260507073005 18 317 6.4 14.5 0.00 0.00 0.00 57 1014.8
20260507072503 18 328 6.4 12.9 0.00 0.00 0.00 57 1014.8
20260507072003 18 341 4.8 12.9 0.00 0.03 0.00 61 1014.7
20260507071503 18 305 1.6 8.0 0.00 0.03 0.00 59 1014.6
20260507071213 18 304 3.2 8.0 0.00 0.03 0.00 59 1014.9
20260507070714 19 307 3.2 8.0 0.00 0.03 0.00 58 1014.7
20260507070007 19 291 1.6 4.8 0.00 0.03 0.00 58 1014.8
20260507065503 19 296 1.6 4.8 0.00 0.03 0.00 60 1014.8
20260507065003 18 30 3.2 8.0 0.00 0.03 0.00 64 1014.7
20260507064503 18 53 4.8 9.7 0.00 0.03 0.00 67 1014.8
20260507064004 17 70 4.8 9.7 0.00 0.03 0.00 70 1014.9
20260507063716 17 69 4.8 9.7 0.00 0.03 0.00 72 1014.7
20260507063005 16 52 4.8 9.7 0.00 0.03 0.00 74 1014.8
20260507062503 17 29 4.8 9.7 0.00 0.03 0.00 75 1014.7
20260507062003 17 2 4.8 9.7 0.00 0.03 0.00 75 1014.7
20260507061503 17 340 4.8 9.7 0.00 0.03 0.00 76 1014.7
20260507061003 17 333 3.2 9.7 0.00 0.03 0.00 76 1014.8
20260507060503 16 356 3.2 9.7 0.00 0.03 0.00 76 1014.8
20260507060003 16 116 4.8 12.9 0.00 0.03 0.00 80 1014.6
20260507055503 15 122 6.4 12.9 0.00 0.03 0.00 83 1014.6
20260507055003 16 121 4.8 12.9 0.00 0.03 0.00 81 1014.7
20260507054503 16 193 4.8 12.9 0.00 0.03 0.00 81 1014.7
20260507054003 15 228 8.0 16.1 0.00 0.03 0.00 80 1014.4
20260507053504 15 232 9.7 16.1 0.00 0.03 0.00 82 1014.3
20260507053003 15 237 8.0 14.5 0.00 0.03 0.00 84 1014.4
20260507052505 15 264 6.4 14.5 0.00 0.03 0.00 86 1014.2
20260507052005 15 297 4.8 11.3 0.00 0.03 0.00 87 1014.5
20260507051715 15 309 4.8 11.3 0.00 0.03 0.00 86 1014.3
20260507051003 15 305 3.2 8.0 0.00 0.03 0.00 86 1014.1
20260507050503 15 359 1.6 6.4 0.00 0.03 0.00 85 1014.4
20260507050003 15 8 3.2 6.4 0.00 0.03 0.00 85 1014.3
20260507045504 15 344 3.2 8.0 0.00 0.03 0.00 86 1013.9
20260507045214 15 343 4.8 9.7 0.00 0.03 0.00 86 1014.0
20260507044506 16 309 3.2 9.7 0.00 0.05 0.00 86 1013.8
20260507044004 15 195 3.2 9.7 0.00 0.08 0.00 85 1013.8
20260507043713 15 172 4.8 11.3 0.00 0.08 0.00 85 1013.6
20260507043005 15 170 9.7 14.5 0.00 0.10 0.00 87 1013.6
20260507042503 15 172 9.7 14.5 0.00 0.10 0.00 87 1013.6
20260507042003 15 169 9.7 14.5 0.00 0.13 0.00 87 1013.9
20260507041503 15 166 9.7 14.5 0.00 0.13 0.00 87 1013.8
20260507041003 15 166 9.7 16.1 0.00 0.13 0.00 86 1013.7
20260507040713 15 166 9.7 16.1 0.00 0.13 0.00 86 1013.6
20260507040008 15 159 8.0 16.1 0.00 0.13 0.00 86 1013.5
20260507035713 15 152 8.0 12.9 0.00 0.13 0.00 86 1013.5
20260507035004 15 148 8.0 12.9 0.00 0.13 0.00 85 1013.5
20260507034503 15 168 8.0 14.5 0.00 0.13 0.00 85 1013.4
20260507034003 15 166 8.0 14.5 0.00 0.13 0.00 85 1013.3
20260507033504 15 155 9.7 14.5 0.00 0.13 0.00 88 1013.4
20260507033003 15 160 11.3 16.1 0.00 0.13 0.00 88 1013.4
20260507032503 15 160 11.3 16.1 0.00 0.13 0.00 88 1013.6
20260507032004 15 156 9.7 16.1 0.00 0.13 0.00 88 1013.4
20260507031713 15 160 9.7 16.1 0.00 0.13 0.00 88 1013.5
20260507031003 15 158 9.7 16.1 0.00 0.13 0.00 87 1013.6
20260507030713 15 155 8.0 16.1 0.00 0.13 0.00 86 1013.4
20260507030003 15 166 4.8 8.0 0.00 0.13 0.00 83 1013.4
20260507025712 15 191 3.2 9.7 0.00 0.13 0.00 83 1013.5
20260507025005 15 349 1.6 9.7 0.00 0.13 0.00 83 1013.5
20260507024503 15 152 1.6 8.0 0.00 0.13 0.00 82 1013.4
20260507024004 15 139 3.2 6.4 0.00 0.13 0.00 81 1013.5
20260507023503 16 120 1.6 6.4 0.00 0.13 0.00 82 1013.4
20260507023213 16 346 3.2 9.7 0.00 0.13 0.00 81 1013.4
20260507022503 16 308 3.2 9.7 0.00 0.13 0.00 80 1013.4
20260507022003 16 339 3.2 9.7 0.00 0.13 0.00 80 1013.4
20260507021503 16 360 6.4 9.7 0.00 0.13 0.00 78 1013.4
20260507021005 16 8 4.8 9.7 0.00 0.13 0.00 79 1013.5
20260507020503 16 15 3.2 9.7 0.00 0.13 0.00 80 1013.5
20260507020003 16 350 4.8 14.5 0.00 0.13 0.00 80 1013.4
20260507015503 16 337 4.8 14.5 0.00 0.13 0.00 81 1013.5
20260507015005 16 151 1.6 9.7 0.00 0.13 0.00 80 1013.5
20260507014714 16 100 1.6 8.0 0.00 0.13 0.00 81 1013.3
20260507014003 16 56 3.2 8.0 0.00 0.13 0.00 81 1013.3
20260507013503 16 84 1.6 8.0 0.00 0.13 0.00 81 1013.5
20260507013003 16 90 3.2 9.7 0.00 0.13 0.00 80 1013.4
20260507012503 16 113 4.8 9.7 0.00 0.13 0.00 80 1013.4
20260507012215 16 94 4.8 9.7 0.00 0.13 0.00 80 1013.5
20260507011503 16 356 4.8 9.7 0.00 0.13 0.00 79 1013.5
20260507011213 16 4 4.8 14.5 0.00 0.13 0.00 79 1013.3
20260507010503 16 14 8.0 16.1 0.00 0.13 0.00 79 1013.4
20260507010213 16 12 6.4 16.1 0.00 0.13 0.00 79 1013.3
20260507005505 17 55 3.2 8.0 0.00 0.13 0.00 77 1013.3
20260507005005 17 43 3.2 8.0 0.00 0.13 0.00 76 1013.4
20260507004503 17 2 3.2 8.0 0.00 0.13 0.00 75 1013.3
20260507004005 17 69 4.8 9.7 0.00 0.13 0.00 75 1013.4
20260507003503 17 44 4.8 9.7 0.00 0.13 0.00 75 1013.5
20260507003004 17 13 3.2 9.7 0.00 0.13 0.00 73 1013.3
20260507002503 17 12 3.2 12.9 0.00 0.13 0.00 74 1013.5
20260507002004 17 357 4.8 12.9 0.00 0.13 0.00 73 1013.5
20260507001503 17 357 4.8 12.9 0.00 0.13 0.00 73 1013.3
20260507001005 17 348 4.8 19.3 0.00 0.13 0.00 73 1013.6
20260507000503 17 343 6.4 19.3 0.00 0.13 0.00 72 1013.6
20260507000003 17 326 8.0 17.7 0.00 0.13 0.00 72 1013.5
20260506235503 17 277 8.0 17.7 0.00 0.13 0.00 70 1013.4
20260506235212 18 237 6.4 11.3 0.00 0.13 0.00 67 1013.4
20260506234505 18 244 8.0 14.5 0.00 0.13 0.00 65 1013.4
20260506234003 18 275 9.7 19.3 0.00 0.13 0.00 66 1013.2
20260506233503 18 292 8.0 19.3 0.00 0.13 0.00 67 1013.3
20260506233003 17 248 9.7 17.7 0.00 0.13 0.00 69 1013.5
20260506232503 17 201 11.3 20.9 0.00 0.13 0.00 70 1013.3
20260506232214 17 193 12.9 20.9 0.00 0.13 0.00 70 1013.4
20260506231713 17 184 16.1 20.9 0.00 0.13 0.00 71 1013.3
20260506231005 17 181 19.3 32.2 0.00 0.13 0.00 71 1013.0
20260506230503 18 181 24.1 32.2 0.00 0.13 0.00 69 1013.0
20260506230003 17 180 25.7 30.6 0.00 0.13 0.00 69 1013.3
20260506225503 18 183 24.1 30.6 0.00 0.13 0.00 69 1013.3
20260506225003 17 183 22.5 30.6 0.00 0.13 0.00 70 1013.2
20260506224503 17 181 22.5 35.4 0.00 0.13 0.00 70 1013.3
20260506224003 18 184 25.7 35.4 0.00 0.13 0.00 69 1013.4
20260506223503 18 184 22.5 35.4 0.00 0.13 0.00 68 1013.2
20260506223003 17 183 20.9 30.6 0.00 0.13 0.00 71 1013.3
20260506222503 17 177 20.9 27.4 0.00 0.13 0.00 71 1013.3
20260506222214 17 175 19.3 27.4 0.00 0.13 0.00 71 1013.4
20260506221504 17 181 17.7 22.5 0.00 0.13 0.00 71 1013.4
20260506221214 17 182 17.7 22.5 0.00 0.13 0.00 70 1013.5
20260506220504 17 180 16.1 22.5 0.00 0.13 0.00 70 1013.5
20260506220216 17 178 14.5 20.9 0.00 0.13 0.00 71 1013.3
20260506215713 17 172 14.5 19.3 0.00 0.13 0.13 72 1013.2
20260506215006 17 169 12.9 19.3 0.00 0.13 0.13 72 1013.3
20260506214503 17 171 12.9 19.3 0.00 0.13 0.13 73 1013.2
20260506214006 16 161 11.3 16.1 0.00 0.13 0.13 76 1013.4
20260506213503 16 157 11.3 14.5 0.00 0.13 0.13 79 1013.3
20260506213005 17 155 11.3 14.5 0.00 0.13 0.13 77 1013.4
20260506212503 17 153 11.3 14.5 0.00 0.13 0.13 75 1013.3
20260506212003 17 153 11.3 16.1 0.00 0.15 0.13 75 1013.3
20260506211503 17 148 8.0 16.1 0.00 0.18 0.13 75 1013.4
20260506211003 17 133 3.2 11.3 0.00 0.18 0.13 76 1013.5
20260506210503 17 57 1.6 4.8 0.00 0.18 0.13 76 1013.4
20260506210003 17 348 1.6 3.2 0.00 0.20 0.13 76 1013.5
20260506205503 17 13 3.2 6.4 0.00 0.23 0.13 76 1013.5
20260506205003 17 50 3.2 6.4 0.00 0.28 0.13 75 1013.4
20260506204714 17 72 3.2 6.4 0.00 0.30 0.13 75 1013.4
20260506204213 17 70 3.2 9.7 0.00 0.36 0.13 75 1013.3
20260506203503 17 64 4.8 9.7 0.00 0.41 0.13 74 1013.4